#timestamp,LO_Frequency,Hit,StdDev 
1586710815.6,286047004.4,N
1586710835.5,286047004.3,N
1586710855.3,286047006.0,Y
1586710875.1,286047000.8,P
1586710895.9,286047000.2,N
1586710915.7,286047002.4,N
1586710935.6,286047001.4,N
1586710955.4,286047002.1,N
1586710975.2,286047001.5,N
1586710995.1,286047001.7,N
1586710996.0,286047001.7,N
1586711015.8,286047001.8,N
1586711035.7,286047004.0,Y
1586711055.5,286047001.4,P
1586711075.3,286047002.8,P
1586711095.2,286047003.1,P
1586711115.0,286047001.4,N
1586711115.9,286047001.4,N
1586711135.8,286047004.3,Y
1586711155.6,286047000.4,P
1586711175.4,286047000.7,N
1586711195.3,286047000.6,N
1586711215.1,286046998.1,Y
1586711235.9,286046996.7,P
1586711255.7,286047001.0,N
1586711275.5,286047001.1,N
1586711295.4,286046999.0,N
1586711315.2,286047001.2,N
1586711335.0,286046998.1,N
1586711335.9,286046998.1,N
1586711355.8,286046998.5,N
1586711375.6,286046998.6,N
1586711395.5,286047002.5,N
1586711415.3,286046999.7,N
1586711435.1,286047000.2,N
1586711455.9,286047001.0,N
1586711475.7,286047000.9,N
1586711495.6,286047000.8,N
1586711515.4,286046998.8,N
1586711535.2,286046998.9,N
1586711555.1,286046996.9,N
1586711556.0,286046996.9,N
1586711575.8,286046996.5,N
1586711595.7,286047000.7,N
1586711615.5,286047002.8,N
1586711635.3,286047003.3,N
1586711655.2,286046999.8,N
1586711675.9,286047002.3,N
1586711695.7,286047002.5,N
1586711715.6,286047002.7,N
1586711735.4,286047002.7,N
1586711755.3,286047000.2,N
1586711775.1,286047000.3,N
1586711776.0,286047000.3,N
1586711795.8,286047000.3,N
1586711815.7,286047002.3,N
1586711835.5,286047000.2,N
1586711855.3,286047001.5,N
1586711875.2,286047002.1,N
1586711895.0,286047007.4,Y
1586711895.9,286047007.4,P
1586711915.8,286047001.4,N
1586711935.6,286047001.2,N
1586711955.5,286047001.2,N
1586711975.3,286046996.9,N
1586711995.1,286046997.7,N
1586712015.9,286046995.9,N
1586712035.7,286046996.7,N
1586712055.5,286046996.1,N
1586712075.4,286046996.8,N
1586712095.2,286046997.1,N
1586712115.1,286047000.6,N
1586712116.0,286047000.6,N
1586712135.8,286046998.5,N
1586712155.7,286046998.3,N
1586712175.5,286047000.8,N
1586712195.3,286046998.6,N
1586712215.2,286047000.7,N
1586712235.0,286047000.2,N
1586712235.9,286047000.2,N
1586712255.8,286047002.4,N
1586712275.6,286046999.8,N
1586712295.4,286047002.6,N
1586712315.3,286047003.8,N
1586712335.1,286047001.7,N
1586712355.9,286047000.2,N
1586712375.7,286047002.6,N
1586712395.5,286047002.7,N
1586712415.4,286046999.7,N
1586712435.2,286047001.6,N
1586712455.1,286047000.2,N
1586712456.0,286047000.2,N
1586712475.8,286046998.4,N
1586712525.7,286047002.5,E
1586712535.6,286047002.2,N
1586712555.4,286047001.2,P
1586712575.3,286046999.3,N
1586712595.1,286046999.2,N
1586712615.8,286046996.5,N
1586712635.7,286046999.6,N
1586712655.5,286047000.4,N
1586712675.4,286046999.2,N
1586712695.2,286046999.5,N
1586712715.0,286046998.6,N
1586712715.9,286046998.6,N
1586712735.8,286047001.1,N
1586712755.6,286047000.2,N
1586712775.5,286047000.9,N
1586712795.3,286047002.8,N
1586712815.1,286046999.8,N
1586712835.9,286046999.9,N
1586712855.7,286047001.0,N
1586712875.6,286047002.3,N
1586712895.4,286047002.4,N
1586712915.2,286047000.1,N
1586712935.1,286046999.8,N
1586712936.0,286046999.8,N
1586712955.8,286047000.4,N
1586712975.7,286047000.1,N
1586712995.5,286047000.4,N
1586713015.3,286047001.7,N
1586713035.2,286046999.8,N
1586713055.0,286047000.3,N
1586713055.9,286047000.3,N
1586713075.8,286047002.8,N
1586713095.6,286047000.5,N
1586713115.4,286047000.3,N
1586713135.3,286047001.5,N
1586713155.1,286047004.3,Y
1586713175.8,286047000.0,P
1586713195.7,286047000.4,N
1586713215.5,286046999.7,N
1586713235.4,286047000.4,N
1586713255.2,286047000.8,N
1586713275.0,286047002.1,Y
1586713275.9,286047002.1,P
1586713295.8,286047002.1,N
1586713315.6,286046995.0,P
1586713335.5,286046995.0,N
1586713355.3,286046997.3,N
1586713375.1,286046998.8,N
1586713395.9,286047001.2,N
1586713415.7,286047000.2,N
1586713435.6,286046999.9,N
1586713455.4,286047002.0,N
1586713475.2,286047001.3,N
1586713495.1,286047002.4,N
1586713496.0,286047002.4,N
1586713515.8,286047001.8,N
1586713535.7,286047002.9,N
1586713555.5,286047005.6,N
1586713575.3,286047003.3,N
1586713595.2,286047003.3,N
1586713615.0,286047001.9,N
1586713615.9,286047001.9,N
1586713635.7,286047002.1,N
1586713655.6,286047001.1,N
1586713675.4,286046998.8,N
1586713695.3,286046999.1,N
1586713715.1,286046997.8,N
1586713735.8,286046996.7,N
1586713755.7,286046998.7,N
1586713775.5,286046999.8,N
1586713795.4,286047002.4,N
1586713815.2,286047000.4,N
1586713835.0,286047000.1,N
1586713835.9,286047000.1,N
1586713855.8,286047000.9,N
1586713875.6,286047000.8,N
1586713895.4,286047002.0,N
1586713915.3,286047002.7,N
1586713935.1,286047001.7,N
1586713955.9,286047002.2,N
1586713975.7,286047003.8,N
1586713995.5,286047004.4,N
1586714015.4,286047003.2,N
1586714035.2,286047001.8,N
1586714055.1,286047003.4,N
1586714056.0,286047003.4,N
1586714075.8,286047003.8,N
1586714095.6,286047003.6,N
1586714115.5,286047003.7,N
1586714135.3,286047004.0,N
1586714155.2,286047004.0,N
1586714175.9,286047004.0,N
1586714195.7,286047001.3,N
1586714215.6,286047003.7,N
1586714235.4,286047004.4,N
1586714255.2,286047004.0,N
1586714275.1,286047000.3,N
1586714276.0,286047000.3,N
1586714295.8,286047000.1,N
1586714315.7,286047002.2,N
1586714335.5,286046999.8,N
1586714355.3,286047001.1,N
1586714375.2,286047000.0,N
1586714395.0,286046998.7,N
1586714395.9,286046998.7,N
